Regional Weather Roundup
Issued by NWS

Home | Current Version | Previous Version | Graphics & Text | Print | Product List | Glossary On
Versions: 1 2 3 4 5 6 7 8 9 10 11 12 13 14 15 16 17 18 19 20 21 22 23 24 25 26 27 28 29 30 31 32 33 34 35 36 37 38 39 40 41 42 43 44 45 46 47 48 49
000
ASUS45 KSLC 042210
RWRUT

UTAH REGIONAL WEATHER ROUNDUP
NATIONAL WEATHER SERVICE SALT LAKE CITY UT
400 PM MDT SAT JUL 04 2015

UTZ001>011-023>025-042300-

NORTHERN UTAH

CITY           SKY/WX    TMP DP  RH WIND       PRES   REMARKS
BRIGHAM CITY   MOSUNNY   97  31  10 SW6       29.88F HX  91
HILL AFB       MOSUNNY   94  45  18 CALM      29.93F HX  90
LOGAN          SUNNY     95  41  15 VRB3      29.89F HX  91
OGDEN          SUNNY     96  45  17 VRB7      29.89F HX  92
PROVO AIRPORT  PTSUNNY   93  46  20 CALM      29.90F
SALT LAKE CITY PTSUNNY   97  51  21 NW8       29.86F HX  94
VERNAL         PTSUNNY   91  43  18 SW8       29.97S
WENDOVER       CLOUDY    90  46  22 W35G40    29.91R
HEBER CITY     PTSUNNY   93  37  14 SW10      29.99F
WEST JORDAN    SUNNY     95  45  17 NE5       29.90F HX  91

$$

UTZ012>022-026-027-042300-

SOUTHERN/CENTRAL UTAH

CITY           SKY/WX    TMP DP  RH WIND       PRES   REMARKS
BLANDING       SUNNY     89  47  23 SW7       30.10F
BRYCE CANYON   CLOUDY    73  51  46 W13       30.24F
CEDAR CITY     CLOUDY    77  52  41 CALM      30.11F
DELTA          PTSUNNY   97  38  13 SW10G23   29.93F HX  92
HANKSVILLE     MOSUNNY   97  43  15 S3        29.92F HX  92
MILFORD        CLOUDY    86  47  25 S31G39    30.02R
MOAB/CYNLANDS  SUNNY     95  47  19 MISG      29.88F HX  91
PRICE          CLOUDY    89  43  20 VRB3      30.03F
ST GEORGE      MOCLDY    91  50  24 SW3       29.92F
KANAB          CLOUDY    82  52  34 SW14      30.10F

$$

REGIONAL REPORTS     COLORADO/ARIZONA

CITY           SKY/WX    TMP DP  RH WIND       PRES   REMARKS
CRAIG, CO      TSTM      75  56  51 SE17      30.05S
GRAND JUNCTION PTSUNNY   93  48  21 W3        29.93F
RIFLE          PTSUNNY   91  48  22 E5        29.98F
MONTROSE       MOSUNNY   90  49  24 SW7       30.03F
CORTEZ         SUNNY     84  52  33 NW10      30.05F
PAGE, AZ       CLOUDY    90  50  25 VRB3      29.97F
GRAND CANYON   PTSUNNY   78  50  37 W12G20    30.18F
KINGMAN        CLOUDY    88  51  28 SW16      29.99S
FLAGSTAFF      CLOUDY    74  53  48 SW14      30.21F

$$

REGIONAL REPORTS    NEVADA/IDAHO/WYOMING

CITY           SKY/WX    TMP DP  RH WIND       PRES   REMARKS
LAS VEGAS, NV  PTSUNNY  102  43  13 CALM      29.81F HX  97
ELY            CLOUDY    83  41  22 SW13      30.11F
ELKO           CLOUDY    82  51  34 SW22G37   30.00R
POCATELLO, ID  SUNNY     95  40  14 SW9G20    29.90F HX  91
BURLEY         PTSUNNY   90  45  21 W7        29.87F
EVANSTON, WY   PTSUNNY   79  48  33 NE9       30.14F
ROCK SPRINGS   MOSUNNY   86  40  19 SW5       30.06F
KEMMERER       PTSUNNY   81  37  21 SW14G25   30.13F

$$



USA.gov is the U.S. government's official web portal to all federal, state and local government web resources and services.